map of FNI home
FNI - Airport
Location
City:  Nīmes, Languedoc-Roussillon, France
Name:NAS Nīmes-Garons
ICAO:LFTW
IATA:FNI

Details
Type:Airport (Aerodrome, Airfield)
Use:Public/Civil
Latitude:43°45'27"N (43.757500)
Longitude:4°24'59"E (4.416389)
Elevation:309 ft (94 m)
Variation:1.27°E (WMM2015 magnetic declination)
0.12° annual change
Runways:1
Longest:8015 × 148 ft (2443 × 45 m), paved

Time
Time Zone:UTC+1 (DST+2)
Local Time:

Weather
METAR:LFTW 230600Z AUTO 15015KT 8000 OVC007 13/12 Q1008 TEMPO 13020G35KT 4000 TSRA BR BKN010CB
TAF:LFTW 230200Z 2303/2403 13015KT 9999 SCT010 BKN015
TEMPO 2307/2312 13020G35KT 4000 TSRA BR BKN010CB
TEMPO 2312/2316 13015G25KT SHRA BKN015CB
BECMG 2319/2322 13005KT NSC
BECMG 2400/2403 2000 TSRA BR BKN005CB

Related Locations
Nearby:
Farthest:CHT: 12397 mi / 19951 km
Waitangi [Tuuta], CIT, NZ

Find:

   beyond  
but within

Other Information
Maps:
NOTAMs:
Links:
Sources:

  
flag of France
flag of Languedoc-Roussillon
  

Sectional Chart

Flight Planning
at skyvector.com

Satellite Image

Google Maps Satellite view

 

Copyright © 2004-2017 Karl L. Swartz. All rights reserved.
The Great Circle Mapper name and logo are trademarks of the Great Circle Mapper.
All other trademarks mentioned herein belong to their respective owners.
Please see credits for attibutions and further copyright information.

  Follow gcmap on Facebook Follow gcmap on Twitter Follow gcmap on Google+ GCmap on LinkedIn

hCard Microformat

Geo Microformat